Location: ??
(35.5090°N, 139.6783°E)
Time: 02:42:32
(UTC+00:00)

Cosmos 2173 Rocket - Pass Details

Date: 08 November 2025
Orbit: 943 x 1000 km, 83.0° (Epoch: 09 December)

Event Time Altitude Azimuth Distance (km) Brightness Sun altitude
Rises 08:15:12 0° 192° (SSW) 3,686 7.4 -7.7°
Reaches altitude 10° 08:17:45 10° 195° (SSW) 2,735 6.8 -8.2°
Maximum altitude 08:23:59 67° 278° (W) 1,053 4.5 -9.4°
Drops below altitude 10° 08:30:09 10° 0° (N) 2,711 6.2 -10.6°
Sets 08:32:41 0° 4° (N) 3,653 6.8 -11.1°
